Regional Weather Roundup
Issued by NWS

Home | Current Version | Previous Version | Graphics & Text | Print | Product List | Glossary On
Versions: 1 2 3 4 5 6 7 8 9 10 11 12 13 14 15 16 17 18 19 20 21 22 23 24 25 26 27 28 29 30 31 32 33 34 35 36 37 38 39 40 41 42 43 44 45 46 47 48 49 50
785
ASUS43 KMKX 300421
RWRWI

WISCONSIN REGIONAL WEATHER ROUNDUP
NATIONAL WEATHER SERVICE MILWAUKEE/SULLIVAN WI
1100 PM CDT SAT APR 29 2017

NOTE: "FAIR" INDICATES FEW OR NO CLOUDS BELOW 12,000 FEET WITH NO
SIGNIFICANT WEATHER AND/OR OBSTRUCTIONS TO VISIBILITY.

WIZ001-002-006>008-014>016-023>028-300500-
NORTHWEST WISCONSIN

CITY           SKY/WX    TMP DP  RH WIND       PRES   REMARKS
SUPERIOR ARPT  CLOUDY    38  25  61 NE7       30.32F WCI  32
ASHLAND        CLOUDY    34  25  69 W3        30.32F
HAYWARD        CLOUDY    40  21  46 NE8       30.27F WCI  34
SIREN          CLOUDY    42  20  40 E8        30.25F
CUMBERLAND     CLOUDY    41  25  52 NE10      30.23F
RICE LAKE      CLOUDY    43  26  52 NE15      30.23F
CHETEK         CLOUDY    44  28  53 NE8G16    30.21F
LADYSMITH      CLOUDY    44  26  48 NE12      30.24F
EAU CLAIRE     CLOUDY    48  26  42 NE10      30.17F
MENOMONIE      CLOUDY    49  25  38 NE14G20   30.18F
NEW RICHMOND   CLOUDY    45  25  45 NE13G18   30.21S
OSCEOLA        CLOUDY    46  26  45 NE10G17   30.25S
$$

WIZ003>005-009-010-017-018-300500-
NORTH CENTRAL WISCONSIN

CITY           SKY/WX    TMP DP  RH WIND       PRES   REMARKS
MANITOWISH WTR NOT AVBL
ARBOR VITAE    MOCLDY    40  20  45 NE5       30.25F
WOODRUFF       MOCLDY    40  20  45 NE5       30.25F
RHINELANDER    MOCLDY    42  23  46 NE9       30.24R
EAGLE RIVER    MOCLDY    38  16  40 NE7       30.26F WCI  33
LAND O LAKES   PTCLDY    37  23  56 NE3       30.29F
PHILLIPS       MOCLDY    40  24  52 NE10G17   30.24S WCI  34
TOMAHAWK       CLOUDY    43  21  41 NE7       30.23F
MEDFORD        CLOUDY    42  29  60 NE12      30.19F
MERRILL        CLOUDY    44  21  40 E7        30.21F
$$

WIZ029-030-035-036-043>047-300500-
CENTRAL WISCONSIN

CITY           SKY/WX    TMP DP  RH WIND       PRES   REMARKS
WAUSAU         CLOUDY    44  22  41 NE10G20   30.17F
MOSINEE        CLOUDY    43  28  56 NE13      30.18F
MARSHFIELD     CLOUDY    43  27  53 E9        30.16F
STEVENS POINT  CLOUDY    42  23  47 NE14G24   30.16F
WAUPACA        CLOUDY    46  27  48 NE10G18   30.17F
WAUTOMA        CLOUDY    44  26  49 NE14G28   30.14F
WISC RAPIDS    CLOUDY    45  25  45 E15       30.16F
CAMP DOUGLAS   CLOUDY    44  28  52 E9G16     30.15R
$$

WIZ011>013-019>022-031-037>040-048>050-300500-
NORTHEAST WISCONSIN

CITY           SKY/WX    TMP DP  RH WIND       PRES   REMARKS
ANTIGO         CLOUDY    40  19  43 NE21G26   30.21S WCI  30
SHAWANO        CLOUDY    46  25  43 NE14G26   30.19F
OCONTO         CLOUDY    42  27  54 NE13G21   30.21
STURGEON BAY   CLOUDY    42  27  55 NE14G21   30.23F
GREEN BAY      CLOUDY    44  36  73 NE23G32   30.17F
MANITOWOC      CLOUDY    40  33  76 NE10G18   30.19S WCI  33
APPLETON       CLOUDY    45  23  42 NE17G24   30.16F
CLINTONVILLE   CLOUDY    43  25  49 NE13G24   30.16F
OSHKOSH        CLOUDY    42  29  59 E23G35    30.12F
$$

WIZ032>034-041-042-053>061-300500-
SOUTHWEST WISCONSIN

CITY           SKY/WX    TMP DP  RH WIND       PRES   REMARKS
LA CROSSE      CLOUDY    48  28  46 NE10      30.14F
SPARTA         CLOUDY    45  29  54 NE9G17    30.15S
VIROQUA        CLOUDY    42  28  55 NE15G25   30.11S
BOSCOBEL       CLOUDY    45  29  53 NE10G20   30.11R
PRAIRIE DU CHI CLOUDY    43  29  58 NE12      30.08F
PLATTEVILLE    CLOUDY    40  38  92 NE12G18   30.07R WCI  33
$$

WIZ056-057-062-063-064-067-068-300500-
SOUTH CENTRAL WISCONSIN

CITY           SKY/WX    TMP DP  RH WIND       PRES   REMARKS
REEDSBURG      CLOUDY    43  28  55 NE15      30.12R
BARABOO/DELLS  CLOUDY    42  28  56 NE16G22   30.12R
LONE ROCK      CLOUDY    43  30  60 NE13      30.10R
MINERAL POINT  CLOUDY    41  36  81 NE15      30.05F
MADISON        DRIZZLE   38  35  89 NE17G23   30.08F WCI  28
MIDDLETON      CLOUDY    40  37  89 NE12G24   30.09S WCI  33
WATERTOWN      CLOUDY    38  38 100 NE10G18   30.07F WCI  31
MONROE         CLOUDY    37  36  93 NE18G24   30.04R WCI  27
JANESVILLE     DRIZZLE   41  41 100 E10       30.07R
$$

WIZ051-052-058>065-066-070>072-300500-
SOUTHEAST WISCONSIN

CITY           SKY/WX    TMP DP  RH WIND       PRES   REMARKS
MILWAUKEE      CLOUDY    42  40  92 NE18G25   30.07F
WAUKESHA       CLOUDY    37  36  93 NE17G28   30.06F WCI  28
MILWAUKEE/TIMM LGT RAIN  39  36  87 NE16G26   30.08S WCI  30
RACINE         CLOUDY    42  40  92 NE17      30.04F
KENOSHA        RAIN      43  41  93 E21G30    30.07R FOG
FOND DU LAC    CLOUDY    41  31  67 E23G31    30.12F
SHEBOYGAN      LGT RAIN  40  36  86 NE21      30.13F WCI  30
WEST BEND      DRIZZLE   37  37 100 NE16G23   30.09F WCI  28
JUNEAU         CLOUDY    38  36  91 NE12G20   30.09F WCI  30
$$

LSZ147-162-300500-
LAKE SUPERIOR

STATION/POSITION TIME  TEMP    WIND        PRES    WAVE
                       AIR SEA DIR/SP/G            HT/PER
                 (UTC) (F)     (DEG/KT/KT) (MB)    (FT/S)
DEVILS ISLAND    0400   37      70/  7/  8 1028.4R
PORT WING        0340   39     150/  2/  7 1027.1R
SAXON HARBOR     0340   35     200/  2/  3 1026.4S
$$

LMZ867-665-643>646-300500-
LAKE MICHIGAN

STATION/POSITION TIME  TEMP    WIND        PRES    WAVE
                       AIR SEA DIR/SP/G            HT/PER
                 (UTC) (F)     (DEG/KT/KT) (MB)    (FT/S)
CHAMBERS ISLAND  0340   40     360/ 18/ 21 1024.0F
N MID LAKE BUOY  0350   39 37   40/ 16/ 17 1026.1F   2/ 3
NORTHPORT PIER   0330   40      10/ 13/ 16 1025.1F
KEWAUNEE LAKESHO 0354   42      30/ 15/ 22 1022.4F
SHEBOYGAN LAKESH 0400   40      40/ 24/ 30 1020.6F
PORT WASHINGTON  0340   41      40/ 22/ 27 1020.3F
MILWAUKEE LAKESH 0400   41      40/ 21/ 24   N/A
S MID LAKE BUOY  0350   42 41   50/ 25/ 31 1015.9F   5/ 6
KENOSHA   LAKESH 0400   43      40/ 16/ 22 1017.9
$$

TC  - TEMPERATURE IN CELSIUS
VSB - VISIBILITY IN STATUTE MILES
WCI - WIND CHILL INDEX
HX  - HEAT INDEX





USA.gov is the U.S. government's official web portal to all federal, state and local government web resources and services.